Location: Dittelbrunn
(50.0738°N, 10.2196°E)
Time: 16:30:52
(UTC+00:00)

NOSS 2-2 (D) - Pass Details

Date: 18 September 2020
Orbit: 469 x 1739 km, 63.3° (Epoch: 23 October)

Event Time Altitude Azimuth Distance (km) Brightness Sun altitude
Rises 19:21:02 0° 226° (SW) 2,500 6.9 -18.7°
Reaches altitude 10° 19:23:03 10° 228° (SW) 1,635 6.0 -19.0°
Maximum altitude 19:26:34 77° 314° (NW) 522 3.2 -19.5°
Drops below altitude 10° 19:30:39 10° 41° (NE) 1,893 5.9 -20.1°
Enters shadow 19:32:21 - 43° (NE) 2,612 6.6 -20.3°
